sat.trackr.live / text

‹ back to catalog

STARLINK-34401

NORAD 64757 · 2025-147C

PAYLOAD ACTIVE UNKNOWN

§ Identity

Operator
Country
US
Launch date
2025-07-08
Launch site
AFETR
Launch vehicle
Mass (kg)
RCS (m²)

Purposes: comms

External: N2YO · Heavens-Above · Gunter

§ Orbital elements

Epoch: 2026-05-25T00:04:29.695008Z

Period
93.85 min
Inclination
53.1604°
Eccentricity
0.0000471
Mean motion
15.34390971 rev/d
Perigee alt
462.4 km
Apogee alt
463.1 km
Semi-major
6,840.9 km
B*
3.1873e-4
RAAN
247.7245°
Arg perigee
236.0429°
Mean anomaly
124.0528°
Rev number
5,037

§ Raw data

STARLINK-344011 64757U 25147C   26145.00312147  .00010405  00000+0  31873-3 0  99982 64757  53.1604 247.7245 0000471 236.0429 124.0528 15.34390971 50378

JSON: /api/v1/satellites/64757 · /tle

For live sub-satellite position, see the globe view (requires WebGL).

§ Visibility from observer

Set your observer location to see the next 7 days of passes ≥ 10°. The values pass through the URL so the page stays shareable.

No JS? Fill the form by hand. The geolocation button needs JavaScript.